Starlink 31772

operational
NORAD ID: 59430 Int'l Des: 2024-065 Owner: SPXS Country: US Constellation: starlink
LEOCIRCULAR

About Starlink 31772

Description loading...

Live Position

Loading 3D Globe...

Upcoming Passes

Altitude History

Altitude vs Time

uPlot chart will show altitude changes over time

Two-Line Element Set

1 59430U 24065K 26036.49747035 .00001551 00000-0 64504-4 0 9999
2 59430 53.1602 70.9867 0001421 88.4967 271.6197 15.30193092104008
Epoch: Feb 5, 2026 • Age: 6 hours

Current Status

Altitude 494.1 km
Velocity 7.62 km/s
Sub-Earth Point -51.66°S, 44.48°W
Launch Date Apr 7, 2024
Age 1.8 years
Type internet

Technical Details

Classification Payload
Mass 730.00 kg
Dry Mass 700.00 kg
Total Mass 730.00 kg
Length 0.30 m
Diameter 4.10 m
Span 29.00 m
Shape Box + pan
Manufacturer SPXS
Bus Type Starlink V2M
Phase Status In Orbit
Owner/State SPXS/US

Large Constellations

Loading constellations...